Regional Weather Roundup
Issued by NWS

Home | Current Version | Previous Version | Graphics & Text | Print | Product List | Glossary On
Versions: 1 2 3 4 5 6 7 8 9 10 11 12 13 14 15 16 17 18 19 20 21 22 23 24 25 26 27 28 29 30 31 32 33 34 35 36 37 38 39 40 41 42 43 44 45 46 47 48 49 50
820
ASUS43 KFSD 250302
RWRSD

WEATHER ROUNDUP FOR SOUTH DAKOTA
NATIONAL WEATHER SERVICE SIOUX FALLS SD
1000 PM CDT WED MAY 24 2017

NOTE: "FAIR" INDICATES FEW OR NO CLOUDS BELOW 12,000 FEET WITH NO
SIGNIFICANT WEATHER AND/OR OBSTRUCTIONS TO VISIBILITY.


SDZ001>005-009-010-012>017-250400-
NORTHWEST AND NORTH CENTRAL SOUTH DAKOTA

CITY           SKY/WX    TMP DP  RH WIND       PRES   REMARKS
BUFFALO          N/A     61  51  70 E13       29.24R
FAITH            N/A     62  40  44 SE24G38   29.31F
MOBRIDGE       CLEAR     61  42  49 SE22G30   29.39F
$$

SDZ012>016-024>037-041>051-057-063-072>074-250400-
SOUTHWEST AND SOUTH CENTRAL SOUTH DAKOTA

CITY           SKY/WX    TMP DP  RH WIND       PRES   REMARKS
RAPID CTY ARPT CLEAR     64  49  57 S12       29.31S
PIERRE         CLEAR     60  43  53 SE22G31   29.41F
CUSTER         CLOUDY    57  50  77 VRB3      29.43F
ELLSWORTH AFB  CLEAR     69  49  50 S15G21    29.28F
PHILIP         CLEAR     64  44  48 SE10      29.33F
PINE RIDGE     CLEAR     70  46  42 S24G35    29.37S
SPEARFISH      FAIR      70  46  43 S12       29.27S
WINNER         FAIR      60  45  57 SE20      29.47F
$$

SDZ004>011-016>023-039-040-250400-
NORTHEAST SOUTH DAKOTA

CITY           SKY/WX    TMP DP  RH WIND       PRES   REMARKS
ABERDEEN       CLEAR     57  42  57 SE14      29.56F
WATERTOWN      CLEAR     52  44  74 SE9       29.63R
BROOKINGS      CLEAR     52  45  77 SE12      29.65R
SISSETON         N/A     51  45  79 S8        29.63R
$$

SDZ017-020-022-023-036>040-048>070-250400-
SOUTHEAST SOUTH DAKOTA

CITY           SKY/WX    TMP DP  RH WIND       PRES   REMARKS
SIOUX FALLS    CLEAR     56  45  66 SE9       29.64F
HURON          CLEAR     55  46  71 SE12      29.58R
MITCHELL       CLEAR     57  46  66 SE14      29.59F
YANKTON        CLEAR     56  45  66 E8        29.62F
$$

ABBREVIATIONS USED IN REMARKS
   TC - TEMPERATURE IN CELSIUS
  WCI - WIND CHILL INDEX
   HX - HEAT INDEX
  VSB - VISIBILITY





USA.gov is the U.S. government's official web portal to all federal, state and local government web resources and services.